Sexton Summit, OR

4:04 AM PDT on March 30, 2017 (GMT -0700)
Sexton Summit

Weather History for KSXT - January, 2014

Change the Weather History Date:

Wednesday, January 22, 2014

  Actual Average Record
Temperature  
Mean Temperature 42 °F -  
Max Temperature 48 °F 39 °F 59 °F (2005)
Min Temperature 37 °F 31 °F 19 °F (2008)
Degree Days  
Heating Degree Days 22    
Moisture  
Dew Point 26 °F    
Average Humidity 53    
Maximum Humidity 83    
Minimum Humidity 29    
Precipitation  
Precipitation 0.00 in - - ()
Sea Level Pressure  
Sea Level Pressure 30.20 in    
Wind  
Wind Speed 6 mph (NE)    
Max Wind Speed 13 mph    
Max Gust Speed 21 mph    
Visibility 10 miles    
Events      
Averages and records for this station are not official NWS values.
T = Trace of Precipitation, MM = Missing Value Source: NWS Daily Summary

Daily Weather History Graph

Daily Weather History Graph

Search for Another Location

Airport or City:

Trip Planner

Search our weather history database for the weather conditions in past years. The results will help you decide how hot, cold, wet, or windy it might be!

Date:

Astronomy

Jan. 22, 2014 Rise Set
Actual Time 7:36 AM PST 5:14 PM PST
Civil Twilight 7:05 AM PST 5:44 PM PST
Nautical Twilight 6:31 AM PST 6:19 PM PST
Astronomical Twilight 5:57 AM PST 6:52 PM PST
Moon No Moon Rise 10:31 AM PST (1/22)
Length of Visible Light 10h 39m
Length of Day
9h 37m
Waning Gibbous, 64% of the Moon is Illuminated
Jan 22
Waning Gibbous
Jan 23
Last Quarter
Jan 30
New
Feb 6
First Quarter
Feb 14
Full

Hourly Weather History & Observations

Time (PST) Temp. Windchill Dew Point Humidity Pressure Visibility Wind Dir Wind Speed Gust Speed Precip Events Conditions
12:56 AM 46.9 °F - 16.0 °F 29% 30.26 in 10.0 mi North 3.5 mph - N/A   Clear
1:56 AM 45.0 °F 42.6 °F 19.9 °F 37% 30.24 in 10.0 mi SSE 4.6 mph - N/A   Clear
2:56 AM 44.1 °F 40.8 °F 21.9 °F 42% 30.24 in 10.0 mi SE 5.8 mph - N/A   Clear
3:56 AM 45.0 °F - 19.9 °F 37% 30.23 in 10.0 mi Calm Calm - N/A   Clear
4:56 AM 46.0 °F - 18.0 °F 33% 30.23 in 10.0 mi Calm Calm - N/A   Clear
5:56 AM 39.9 °F 32.9 °F 26.1 °F 58% 30.25 in 10.0 mi North 11.5 mph - N/A   Clear
6:56 AM 42.1 °F 36.1 °F 19.0 °F 40% 30.24 in 10.0 mi North 10.4 mph - N/A   Clear
7:56 AM 39.9 °F 32.9 °F 26.1 °F 58% 30.25 in 10.0 mi North 11.5 mph - N/A   Clear
8:56 AM 44.1 °F - 24.1 °F 45% 30.23 in 10.0 mi Calm Calm - N/A   Clear
9:56 AM 39.9 °F 32.9 °F 28.9 °F 65% 30.25 in 10.0 mi NNE 11.5 mph - N/A   Clear
10:56 AM 46.9 °F - 28.0 °F 48% 30.22 in 10.0 mi ESE 4.6 mph - N/A   Clear
11:56 AM 48.0 °F - 27.0 °F 44% 30.20 in 10.0 mi Calm Calm - N/A   Clear
12:56 PM 44.1 °F 42.5 °F 27.0 °F 51% 30.19 in 10.0 mi North 3.5 mph - N/A   Clear
1:56 PM 41.0 °F 36.4 °F 32.0 °F 70% 30.18 in 10.0 mi NNW 6.9 mph - N/A   Clear
2:56 PM 41.0 °F 34.3 °F 30.9 °F 67% 30.17 in 10.0 mi NNW 11.5 mph 20.7 mph N/A   Clear
3:56 PM 41.0 °F 33.9 °F 30.9 °F 67% 30.17 in 10.0 mi NNW 12.7 mph - N/A   Clear
4:56 PM 39.0 °F 31.8 °F 32.0 °F 76% 30.17 in 10.0 mi North 11.5 mph - N/A   Clear
5:56 PM 37.9 °F 30.9 °F 33.1 °F 83% 30.18 in 10.0 mi North 10.4 mph - N/A   Clear
6:56 PM 44.1 °F 39.0 °F 25.0 °F 47% 30.15 in 10.0 mi ENE 9.2 mph - N/A   Clear
7:56 PM 43.0 °F 38.2 °F 27.0 °F 53% 30.15 in 10.0 mi ENE 8.1 mph - N/A   Clear
8:56 PM 43.0 °F 38.8 °F 27.0 °F 53% 30.13 in 10.0 mi ENE 6.9 mph - N/A   Clear
9:56 PM 42.1 °F 36.6 °F 27.0 °F 55% 30.15 in 10.0 mi ENE 9.2 mph - N/A   Clear
10:56 PM 41.0 °F 35.2 °F 26.1 °F 55% 30.14 in 10.0 mi East 9.2 mph - N/A   Clear
11:56 PM 41.0 °F 35.2 °F 24.1 °F 51% 30.12 in 10.0 mi East 9.2 mph - N/A   Clear